ARIANE 2 DEB, 33558

Orbit data source: Space-Track

ARIANE 2 DEB, 33558 is space debris in HEO originally from a launch on Fri, 27 Jan 1989 UTC launched from the French Guiana (FRGUI). Debris objects in space refer to the collection of defunct objects orbiting the Earth. Examples of debris include non-operational satellites, rocket bodies, and fragments generated from explosions, collisions, or faulty payload assembly.

Loading next visibility...
Identifier
33558, 1989-006BA
Orbit
HEO
Country
Flag of FRFR
Related business
Manufacturer
EADS/LV
Mission
Spacecraft
Bus & Motor
Unknown
Mass
Unknown
Launch date (UTC)
1989-01-27 (37 years ago)
Launch vehicle
Unknown
Launch site
French Guiana (FRGUI)
Object type
Payload
Rocket body
Debris
Shape & HBR
Unknown shape, 0.2 m
Radar Cross Section
Medium (>0.1 m² and <1 m²)

Expand to show TLE details & history
Last TLE update: 19 hours ago

TLE from 19 hours ago
0 ARIANE 2 DEB
1 33558U 89006BA  25349.50880646 -.00000001  00000-0  00000-0 0  9999
2 33558  10.3860  33.6226 6944244 150.3084 279.3389  2.21884398 17172
Epoch: 2025-12-15T12:12Z
TLE epoch observation values (Epoch: 2025-12-15T12:12:40.878Z)
Latitude
Longitude
125.96266°
Altitude
26,096.107 km
Speed
2.915 km/s
True Right ascension
02h 14m 09s
True Declination
0° 00' 00"
Sunlit
Object was in daylight at epoch
Visualization orbit readout
Latitude
Unknown
Longitude
Unknown
Altitude
Unknown
Speed
Unknown
Apparent Right ascension
Unknown
Apparent Declination
Unknown
Sunlit
N/A
Visualization observer readout
Local Sidereal Time
05:38:01
Azimuth
Unknown
Elevation
Unknown
Doppler factor
Unknown
Orbital elements
Apogee altitude
35,702.826 km
Perigee altitude
1,210.821 km
Semi-major axis
24,834.961 km
Eccentricity
0.69442
Inclination
10.386°
RAAN
33.6226°
Arg. of periapsis
150.3084°
True anomaly
209.54517°
Mean anomaly
279.3389°
Eccentric anomaly
243.67696°
Mean motion
0.55456 °/min
Orbital period
649.16 mins
BSTAR
0
Loading maneuver chart data...
Computing Atmospheric mass density...
Loading historical data...
Loading historical data...
Loading historical data...
Loading historical data...
Loading historical data...
Loading historical data...
Loading historical data...

Documentation

Showing up to 5 results
|